Location: downtown San Diego
(32.7310°N, 117.1990°W)
Time: 12:45:08
(UTC-07:00)

Cosmos 1954 Rocket - Pass Details

Date: 12 July 2018
Orbit: 752 x 782 km, 74.0° (Epoch: 20 September)

Event Time Altitude Azimuth Distance (km) Brightness Sun altitude
Rises 20:21:06 0° 190° (S) 3,185 7.0 -5.0°
Reaches altitude 10° 20:23:28 10° 188° (S) 2,264 6.2 -5.4°
Maximum altitude 20:28:34 73° 105° (ESE) 789 3.9 -6.3°
Drops below altitude 10° 20:33:43 10° 21° (NNE) 2,284 6.6 -7.3°
Sets 20:36:06 0° 20° (NNE) 3,216 7.4 -7.7°
